Location: Augustenthal
(51.7167°N, 10.2833°E)
Time: 20:44:08
(UTC+00:00)

H-2A R/B - Pass Details

Date: 18 May 2021
Orbit: 573 x 598 km, 98.2° (Epoch: 23 June)

Event Time Altitude Azimuth Distance (km) Brightness Sun altitude
Rises 21:56:39 0° 10° (N) 2,843 8.1 -16.5°
Reaches altitude 10° 21:58:53 10° 4° (N) 1,933 7.2 -16.6°
Maximum altitude 22:02:52 45° 292° (WNW) 809 4.4 -16.8°
Enters shadow 22:06:14 14° 222° (SW) 1,675 5.5 -16.9°
